#timestamp,LO_Frequency,Hit,StdDev 
1583841615.3,286047004.2,N
1583841635.1,286047001.9,N
1583841636.0,286047001.9,N
1583841655.8,286047000.0,N
1583841675.7,286047001.8,N
1583841695.5,286047001.6,N
1583841715.3,286047002.6,N
1583841735.2,286047000.1,N
1583841755.0,286047003.9,N
1583841755.9,286047003.9,N
1583841775.8,286047001.3,N
1583841795.6,286047001.4,N
1583841815.4,286047005.3,Y
1583841835.3,286047003.7,P
1583841855.1,286047002.0,N
1583841875.9,286047001.7,N
1583841895.7,286047004.4,Y
1583841915.5,286047000.5,P
1583841935.4,286047002.0,N
1583841955.2,286047001.9,N
1583841975.1,286047001.7,N
1583841976.0,286047001.7,N
1583841995.8,286047002.1,Y
1583842015.6,286046998.2,P
1583842035.5,286046999.2,N
1583842055.3,286046999.2,N
1583842075.2,286046997.1,N
1583842095.9,286046997.2,N
1583842115.7,286046998.9,N
1583842135.6,286047001.2,N
1583842155.4,286047000.7,N
1583842175.2,286046999.2,N
1583842195.1,286046999.6,N
1583842196.0,286046999.6,N
1583842215.8,286046999.1,N
1583842235.7,286047000.8,N
1583842255.5,286046998.7,N
1583842275.3,286046999.3,N
1583842295.2,286046997.5,N
1583842315.0,286046995.1,Y
1583842315.9,286046995.1,P
1583842335.8,286046998.7,N
1583842355.6,286046999.1,N
1583842375.5,286046998.2,N
1583842395.3,286046999.6,N
1583842415.1,286046998.7,N
1583842435.9,286047002.4,N
1583842455.7,286047000.1,N
1583842475.5,286047002.2,N
1583842495.4,286047002.1,N
1583842515.2,286047002.5,N
1583842535.1,286047002.2,N
1583842536.0,286047002.2,N
1583842555.8,286047000.2,N
1583842575.6,286047002.8,N
1583842595.5,286047004.4,N
1583842615.3,286047003.9,N
1583842635.1,286047003.5,N
1583842655.9,286047003.8,N
1583842675.7,286047002.5,N
1583842695.6,286047001.6,N
1583842715.4,286047002.0,N
1583842735.2,286047000.4,N
1583842755.1,286047001.1,N
1583842756.0,286047001.1,N
1583842775.8,286047001.2,N
1583842795.7,286046998.1,N
1583842815.5,286047002.6,N
1583842835.3,286047001.0,N
1583842855.2,286046998.8,N
1583842875.9,286046999.2,N
1583842895.8,286046998.6,N
1583842915.6,286046998.9,N
1583842935.4,286046998.1,N
1583842955.3,286046999.0,N
1583842975.1,286046998.2,N
1583842995.8,286046999.1,N
1583843015.7,286046999.6,N
1583843035.5,286046996.5,N
1583843055.4,286046997.7,N
1583843075.2,286046997.4,N
1583843095.0,286046997.4,N
1583843095.9,286046997.4,N
1583843115.8,286046997.6,N
1583843135.6,286046995.0,N
1583843155.5,286046997.3,N
1583843175.3,286046996.9,N
1583843195.1,286046997.8,N
1583843215.9,286046998.0,N
1583843235.7,286046998.0,N
1583843255.6,286046997.9,N
1583843275.4,286046995.3,N
1583843295.2,286046998.0,N
1583843315.1,286046998.0,N
1583843316.0,286046998.0,N
1583843335.8,286046995.0,Y
1583843355.7,286046997.5,P
1583843375.5,286046995.9,P
1583843395.3,286046993.8,P
1583843415.2,286046996.2,N
1583843435.0,286046996.0,N
1583843435.9,286046996.0,N
1583843455.8,286046993.3,Y
1583843475.6,286046997.1,P
1583843495.4,286046998.9,N
1583843515.3,286046999.2,N
1583843535.1,286046997.4,N
1583843555.8,286046996.7,N
1583843575.7,286046997.6,N
1583843595.5,286046996.1,Y
1583843615.4,286046996.6,P
1583843635.4,286046997.8,P
1583843655.2,286046997.5,P
1583843675.0,286046997.8,Y
1583843675.9,286046997.8,P
1583843695.8,286047000.9,P
1583843715.6,286046996.5,N
1583843735.5,286046998.1,N
1583843755.3,286046996.7,N
1583843775.1,286046997.8,N
1583843795.9,286046997.2,N
1583843815.7,286046997.5,N
1583843835.6,286046993.7,Y
1583843855.4,286046996.9,P
1583843875.2,286046999.4,N
1583843895.1,286046998.9,N
1583843896.0,286046998.9,N
1583843915.8,286047001.0,N
1583843935.7,286047000.6,N
1583843955.5,286046998.5,N
1583843975.3,286046999.1,N
1583843995.2,286046998.7,N
1583844015.9,286046999.3,N
1583844035.7,286046998.4,N
1583844055.6,286046998.5,N
1583844075.4,286047000.0,N
1583844095.3,286047000.3,N
1583844115.1,286047000.1,N
1583844116.0,286047000.1,N
1583844135.8,286047002.7,N
1583844155.7,286047001.7,N
1583844175.5,286047001.5,N
1583844195.3,286047001.3,N
1583844215.2,286047001.4,N
1583844235.0,286047002.0,N
1583844235.9,286047002.0,N
1583844255.8,286047001.6,N
1583844275.6,286047001.4,N
1583844295.4,286047004.4,N
1583844315.3,286047004.0,N
1583844335.1,286047002.0,N
1583844355.9,286047003.7,N
1583844375.7,286047004.3,N
1583844395.5,286047002.0,N
1583844415.4,286047000.3,N
1583844435.2,286047002.8,N
1583844455.1,286046999.9,N
1583844456.0,286046999.9,N
1583844475.8,286047001.4,N
1583844495.6,286047001.8,N
1583844515.5,286047001.5,N
1583844535.3,286047003.2,N
1583844555.2,286047001.7,N
1583844575.9,286047002.7,N
1583844595.7,286047002.6,N
1583844615.6,286047003.8,N
1583844635.4,286047001.5,N
1583844655.3,286047004.2,Y
1583844675.1,286047001.6,P
1583844676.0,286047001.6,P
1583844695.8,286047001.7,P
1583844715.7,286047001.9,Y
1583844735.5,286047000.1,P
1583844755.4,286046999.8,N
1583844775.2,286047000.1,N
1583844795.0,286047002.0,N
1583844795.9,286047002.0,N
1583844815.8,286047001.5,N
1583844835.6,286047000.2,N
1583844855.4,286047002.4,N
1583844875.3,286046999.7,N
1583844895.1,286047000.9,N
1583844915.9,286047001.5,N
1583844935.7,286047002.6,N
1583844955.5,286047002.2,N
1583844975.4,286047000.8,N
1583844995.2,286047000.0,N
1583845015.1,286047001.5,N
1583845016.0,286047001.5,N
1583845035.8,286047000.5,N
1583845055.6,286047001.2,N
1583845075.5,286047000.2,N
1583845095.3,286047000.9,N
1583845115.1,286047002.3,N
1583845135.9,286047004.1,Y
1583845155.7,286047002.5,P
1583845175.6,286047002.7,P
1583845195.4,286047000.6,N
